Other Surface Observations
Issued by NWS Tucson, AZ

Home | Current Version | Previous Version | Text Only | Print | Product List | Glossary On
Versions: 1 2 3 4 5 6 7 8 9 10 11 12 13 14 15 16 17 18 19 20 21 22 23 24 25 26 27 28 29 30 31 32 33 34 35 36 37 38 39 40 41 42 43 44 45 46 47 48 49 50
964
SXUS55 KTWC 201115
OSOTWC

WEATHER ROUNDUP FOR SOUTHEAST ARIZONA
NATIONAL WEATHER SERVICE TUCSON AZ
415 AM MST FRI OCT 20 2017

AZZ504>506-514-201215-
LOCATION       SKY/WX    TMP DP  RH WIND       PRES   REMARKS
TUCSON         PTCLDY    69  37  30 SE10      29.88F
DAVIS-MONTHAN  PTCLDY    65  35  33 SE7       29.87S
CHILDRENS PARK N/A      N/A N/A  31 E2                PIMA CO DEQ
ALVERNON/22ND  N/A       69 N/A N/A SE2               PIMA CO DEQ
CHERRY/GLENN   N/A       69 N/A N/A SE3               PIMA CO DEQ
TANGERINE      N/A       67 N/A N/A E3                PIMA CO DEQ
CONTL RANCH    N/A       66  34  31 SE1               PIMA CO DEQ
GRANT/1ST      N/A       70  36  29 SE4               PIMA CO DEQ
CRAYCROFT/22ND N/A       68  37  32 N/A               PIMA CO DEQ
GOLFLINKS/KOLB N/A      N/A N/A N/A N/A               PIMA CO DEQ
AJO/12TH       N/A       65  39  39 S2                PIMA CO DEQ
FAIRGROUNDS    N/A       67 N/A N/A SE5               PIMA CO DEQ
SAGUARO        N/A       71  30  22 N3                *SABINO CYN
SAN CARLOS     N/A       57  35  43 CALM              *SAN CARLOS
GREEN VALLEY   N/A       72  39  30 W6                PIMA CO DEQ
HORSE CAMP CYN N/A       65  31  28 E9                *ARAVAIPA CYN
RINCON MTNS    N/A       48  32  54 SW3               *NR MANNING CAMP
$$

AZZ509>511-201215-
LOCATION       SKY/WX    TMP DP  RH WIND       PRES   REMARKS
SAFFORD        PTCLDY    68  44  42 E8        29.89S
STRAY HORSE    N/A       46  36  69 N3                *
TRAIL CABIN    N/A       51  39  64 CALM              *N OF GRANVILLE
BLACK HILLS    NOT AVBL
DRY LAKE       N/A       52  31  44 S6                *NATANES MTNS
NOON CREEK     N/A       62  35  36 SW5G10            *PINALENO MTNS
COLUMBINE      N/A       47  31  53 S6G11             *PINALENO MTNS
GUTHRIE        N/A       54  42  64 S10G14            *SW OF GUTHRIE
$$

AZZ502-503-513-201215-
LOCATION       SKY/WX    TMP DP  RH WIND       PRES   REMARKS
NOGALES        CLOUDY    62  39  42 N3        29.97R
SELLS          N/A       72  41  32 SE6G10            *
SASABE         N/A       65  39  38 SW7G10            *ALTAR VLY
HOPKINS        N/A       55  32  41 W6G10             *SANTA RITA MTNS
CARR CYN       N/A       62  37  39 NE2               *W OF HEREFORD
$$

AZZ507-508-512-201215-
LOCATION       SKY/WX    TMP DP  RH WIND       PRES   REMARKS
SIERRA VISTA   MOCLDY    63  35  35 NW3       30.01R
DOUGLAS        MOCLDY    61  33  35 E5        29.98S
EMPIRE MTNS    NOT AVBL
MULESHOE RANCH N/A       62  33  33 CALM              *PRESERVE
HEADQUARTERS   N/A       56  34  43 E3                *CHIRICAHUA MTNS
$$

.............................NOTES.............................
THIS IS AN AUTOMATED COLLECTIVE WITH MINIMAL QUALITY CONTROL.
PIMA CO DEQ SITES HAVE NONSTANDARD WIND SENSOR HEIGHTS.
PIMA CO DEQ SITES DO NOT REPORT WIND GUSTS.
* INDICATES WIND SENSORS LOCATED AT 20 FEET INSTEAD OF 33 FEET.
..............................KEY..............................
SKY/WX - SKY CONDITION/WEATHER
TMP    - TEMPERATURE IN FAHRENHEIT
DP     - DEWPOINT IN FAHRENHEIT
RH     - RELATIVE HUMIDITY IN PERCENT
WIND   - DIRECTION AND SPEED IN MILES PER HOUR (MPH)
VRB    - VARIABLE WIND DIRECTION
PRES   - MEAN SEA LEVEL PRESSURE IN INCHES OF MERCURY
         F - FALLING PRESSURE   R - RISING PRESSURE
         S - STEADY PRESSURE
VSB    - VISIBILITY IN MILES
HX     - HEAT INDEX IN FAHRENHEIT
WCI    - WIND CHILL INDEX IN FAHRENHEIT
N/A    - NOT AVAILABLE
AFB    - AIR FORCE BASE
         DAVIS-MONTHAN IS DAVIS-MONTHAN AIR FORCE BASE
CYN    - CANYON
MTNS   - MOUNTAINS
NCA    - NATIONAL CONSERVATION AREA
NR     - NEAR
VLY    - VALLEY
CONTL  - CONTINENTAL
PIMA CO DEQ - PIMA COUNTY DEPT OF ENVIRONMENTAL QUALITY



USA.gov is the U.S. government's official web portal to all federal, state and local government web resources and services.